• In Uzbekistan
  • List of Countries
  • For 7 days
  • Water Temperature
  • Satellite Maps
  • Weather Map
  • Weather Widgets
  • user-avatar
    Login

    Hourly Weather Klagenfurt

    Today, 23 February, Thursday

    Time Temperature Precipitation Wind Pressure Humidity
    00:00 +1°C° 0 mm 2 mps 686 mmHg 96%
    01:00 +1°C° 0 mm 2 mps 686 mmHg 96%
    02:00 +1°C° 0 mm 2 mps 686 mmHg 96%
    03:00 +1°C° 0 mm 2 mps 686 mmHg 96%
    04:00 +1°C° 0 mm 2 mps 686 mmHg 96%
    05:00 +1°C° 0 mm 2 mps 686 mmHg 96%
    06:00 +1°C° 0 mm 2 mps 686 mmHg 96%
    07:00 +2°C° 0 mm 1 mps 685 mmHg 97%
    08:00 +2°C° 0 mm 2 mps 686 mmHg 93%
    09:00 +4°C° 0 mm 2 mps 686 mmHg 90%
    10:00 +5°C° 0 mm 2 mps 686 mmHg 86%
    11:00 +6°C° 0 mm 2 mps 686 mmHg 85%
    12:00 +5°C° 0 mm 3 mps 686 mmHg 84%
    13:00 +7°C° 0 mm 3 mps 686 mmHg 82%
    14:00 +7°C° 0 mm 3 mps 685 mmHg 84%
    15:00 +5°C° 0 mm 3 mps 685 mmHg 85%
    16:00 +5°C° 0 mm 3 mps 684 mmHg 87%
    17:00 +4°C° 0 mm 3 mps 684 mmHg 89%
    18:00 +3°C° 0 mm 3 mps 683 mmHg 92%
    19:00 +3°C° 0 mm 3 mps 683 mmHg 94%
    20:00 +3°C° 0.1 mm 3 mps 682 mmHg 94%
    21:00 +3°C° 0.1 mm 3 mps 682 mmHg 94%
    22:00 +3°C° 0.1 mm 3 mps 682 mmHg 94%
    23:00 +3°C° 0.1 mm 3 mps 682 mmHg 94%

    Tomorrow, 24 February, Friday

    Time Temperature Precipitation Wind Pressure Humidity
    00:00 +3°C° 0.1 mm 3 mps 682 mmHg 94%
    01:00 +3°C° 0.1 mm 3 mps 681 mmHg 95%
    02:00 +3°C° 0.1 mm 3 mps 681 mmHg 95%
    03:00 +3°C° 0.1 mm 3 mps 681 mmHg 95%
    04:00 +3°C° 0.1 mm 3 mps 681 mmHg 94%
    05:00 +4°C° 0.1 mm 2 mps 681 mmHg 95%
    06:00 +4°C° 0.1 mm 2 mps 681 mmHg 95%
    07:00 +4°C° 0.1 mm 2 mps 681 mmHg 95%
    08:00 +4°C° 0.3 mm 2 mps 681 mmHg 93%
    09:00 +5°C° 0.3 mm 1 mps 681 mmHg 92%
    10:00 +6°C° 0.3 mm 1 mps 682 mmHg 91%
    11:00 +6°C° 1.3 mm 1 mps 682 mmHg 91%
    12:00 +6°C° 1.3 mm 1 mps 682 mmHg 92%
    13:00 +5°C° 1.3 mm 1 mps 682 mmHg 92%
    14:00 +4°C° 2.1 mm 2 mps 682 mmHg 93%
    15:00 +3°C° 2.1 mm 2 mps 682 mmHg 93%
    16:00 +3°C° 2.1 mm 2 mps 682 mmHg 93%
    17:00 +2°C° 2.1 mm 2 mps 683 mmHg 93%
    18:00 +1°C° 2.1 mm 2 mps 683 mmHg 94%
    19:00 -1°C° 2.1 mm 2 mps 684 mmHg 94%
    20:00 -1°C° 1 mm 2 mps 685 mmHg 95%
    21:00 -1°C° 1 mm 2 mps 686 mmHg 95%
    22:00 -1°C° 1 mm 2 mps 686 mmHg 95%
    23:00 -1°C° 0.2 mm 2 mps 687 mmHg 95%

    Day after tomorrow, 25 February, Saturday

    Time Temperature Precipitation Wind Pressure Humidity
    00:00 -1°C° 0.2 mm 2 mps 688 mmHg 95%
    01:00 -2°C° 0.2 mm 2 mps 688 mmHg 95%
    02:00 -2°C° 0 mm 2 mps 688 mmHg 95%
    03:00 -3°C° 0 mm 2 mps 689 mmHg 95%
    04:00 -4°C° 0 mm 2 mps 689 mmHg 95%
    05:00 -4°C° 0 mm 2 mps 689 mmHg 94%
    06:00 -5°C° 0 mm 2 mps 690 mmHg 94%
    07:00 -6°C° 0 mm 2 mps 690 mmHg 94%
    08:00 -4°C° 0 mm 2 mps 691 mmHg 91%
    09:00 -3°C° 0 mm 2 mps 692 mmHg 87%
    10:00 -1°C° 0 mm 2 mps 692 mmHg 84%
    11:00 +1°C° 0 mm 2 mps 692 mmHg 82%
    12:00 +1°C° 0 mm 2 mps 693 mmHg 80%
    13:00 +2°C° 0 mm 2 mps 693 mmHg 78%
    14:00 +2°C° 0 mm 2 mps 693 mmHg 80%
    15:00 +3°C° 0 mm 1 mps 692 mmHg 81%
    16:00 +3°C° 0 mm 1 mps 692 mmHg 83%
    17:00 +1°C° 0 mm 1 mps 692 mmHg 87%
    18:00 -1°C° 0 mm 1 mps 692 mmHg 90%
    19:00 -4°C° 0 mm 1 mps 692 mmHg 94%
    20:00 -4°C° 0 mm 1 mps 692 mmHg 94%
    21:00 -4°C° 0 mm 1 mps 692 mmHg 93%
    22:00 -4°C° 0 mm 1 mps 693 mmHg 93%
    23:00 -4°C° 0 mm 1 mps 692 mmHg 93%

    26 February, Sunday

    Time Temperature Precipitation Wind Pressure Humidity
    00:00 -4°C° 0 mm 1 mps 692 mmHg 92%
    01:00 -4°C° 0 mm 1 mps 692 mmHg 92%
    02:00 -4°C° 0 mm 1 mps 692 mmHg 90%
    03:00 -4°C° 0 mm 1 mps 691 mmHg 89%
    04:00 -4°C° 0 mm 1 mps 691 mmHg 88%
    05:00 -4°C° 0 mm 1 mps 691 mmHg 86%
    06:00 -4°C° 0 mm 1 mps 690 mmHg 84%
    07:00 -4°C° 0 mm 1 mps 690 mmHg 82%
    08:00 -1°C° 0 mm 1 mps 691 mmHg 79%
    09:00 +1°C° 0 mm 1 mps 691 mmHg 76%
    10:00 +3°C° 0 mm 1 mps 691 mmHg 73%
    11:00 +4°C° 0 mm 1 mps 691 mmHg 72%
    12:00 +5°C° 0 mm 1 mps 691 mmHg 70%
    13:00 +6°C° 0 mm 1 mps 690 mmHg 68%
    14:00 +6°C° 0 mm 1 mps 690 mmHg 73%
    15:00 +6°C° 0 mm 1 mps 690 mmHg 77%
    16:00 +6°C° 0 mm 1 mps 689 mmHg 82%
    17:00 +4°C° 0 mm 1 mps 689 mmHg 85%
    18:00 +2°C° 0 mm 1 mps 688 mmHg 89%
    19:00 0°C° 0 mm 1 mps 688 mmHg 92%
    20:00 -1°C° 0 mm 1 mps 688 mmHg 91%
    21:00 -1°C° 0 mm 1 mps 688 mmHg 91%
    22:00 -1°C° 0 mm 1 mps 688 mmHg 90%
    23:00 -1°C° 0 mm 1 mps 688 mmHg 90%

    27 February, Monday

    Time Temperature Precipitation Wind Pressure Humidity
    00:00 -1°C° 0 mm 1 mps 687 mmHg 90%
    01:00 -1°C° 0 mm 1 mps 687 mmHg 90%
    02:00 -1°C° 0 mm 1 mps 687 mmHg 89%
    03:00 -1°C° 0 mm 1 mps 687 mmHg 88%
    04:00 -1°C° 0 mm 1 mps 686 mmHg 87%
    05:00 -1°C° 0 mm 1 mps 686 mmHg 86%
    06:00 -1°C° 0 mm 1 mps 686 mmHg 85%
    07:00 -1°C° 0 mm 1 mps 686 mmHg 84%
    08:00 +1°C° 0 mm 1 mps 687 mmHg 80%
    09:00 +4°C° 0 mm 1 mps 687 mmHg 76%
    10:00 +6°C° 0 mm 1 mps 688 mmHg 72%
    11:00 +7°C° 0 mm 1 mps 687 mmHg 72%
    12:00 +7°C° 0 mm 1 mps 687 mmHg 71%
    13:00 +7°C° 0 mm 2 mps 686 mmHg 71%
    14:00 +6°C° 0 mm 2 mps 686 mmHg 75%
    15:00 +6°C° 0 mm 2 mps 685 mmHg 79%
    16:00 +5°C° 0 mm 2 mps 685 mmHg 82%
    17:00 +4°C° 0 mm 2 mps 685 mmHg 87%
    18:00 +2°C° 0 mm 2 mps 684 mmHg 91%
    19:00 -1°C° 0 mm 2 mps 684 mmHg 95%
    20:00 -1°C° 0 mm 2 mps 684 mmHg 95%
    21:00 -1°C° 0 mm 2 mps 684 mmHg 94%
    22:00 -1°C° 0 mm 2 mps 683 mmHg 94%
    23:00 -1°C° 0 mm 2 mps 683 mmHg 94%

    28 February, Tuesday

    Time Temperature Precipitation Wind Pressure Humidity
    00:00 -1°C° 0 mm 2 mps 683 mmHg 94%
    01:00 -1°C° 0 mm 2 mps 682 mmHg 95%
    02:00 -1°C° 0 mm 2 mps 682 mmHg 95%
    03:00 +1°C° 0 mm 2 mps 682 mmHg 96%
    04:00 +1°C° 0 mm 2 mps 682 mmHg 96%
    05:00 +1°C° 0.1 mm 2 mps 682 mmHg 97%
    06:00 +2°C° 0.1 mm 2 mps 682 mmHg 97%
    07:00 +2°C° 0.1 mm 2 mps 682 mmHg 97%
    08:00 +3°C° 0.2 mm 2 mps 682 mmHg 95%
    09:00 +3°C° 0.2 mm 2 mps 682 mmHg 93%
    10:00 +4°C° 0.2 mm 2 mps 682 mmHg 91%
    11:00 +4°C° 0.5 mm 2 mps 682 mmHg 92%
    12:00 +5°C° 0.5 mm 2 mps 681 mmHg 93%
    13:00 +5°C° 0.5 mm 2 mps 680 mmHg 94%
    14:00 +4°C° 1 mm 3 mps 680 mmHg 94%
    15:00 +4°C° 1 mm 3 mps 679 mmHg 94%
    16:00 +4°C° 1 mm 3 mps 678 mmHg 95%
    17:00 +4°C° 1.6 mm 3 mps 678 mmHg 95%
    18:00 +4°C° 1.6 mm 3 mps 678 mmHg 96%
    19:00 +3°C° 1.6 mm 4 mps 677 mmHg 96%
    20:00 +3°C° 1.1 mm 3 mps 678 mmHg 96%
    21:00 +3°C° 1.1 mm 3 mps 678 mmHg 96%
    22:00 +3°C° 1.1 mm 3 mps 678 mmHg 96%
    23:00 +3°C° 1.3 mm 3 mps 678 mmHg 96%
    Show more